Saranac Lake, NY

3:39 PM EDT on March 27, 2017 (GMT -0400)
Adirondack Regional

Weather History for KSLK - March, 2013

Change the Weather History Date:

Friday, March 1, 2013

  Actual Average Record
Temperature  
Mean Temperature 27 °F 18 °F  
Max Temperature 31 °F 32 °F 59 °F (2017)
Min Temperature 23 °F 5 °F -20 °F (2015)
Degree Days  
Heating Degree Days 38 47  
Month to date heating degree days 38 47  
Since 1 July heating degree days 6295 6752  
Cooling Degree Days 0 0  
Month to date cooling degree days 0  
Year to date cooling degree days 0  
Moisture  
Dew Point 25 °F    
Average Humidity 89    
Maximum Humidity 92    
Minimum Humidity 85    
Precipitation  
Precipitation 0.03 in 0.05 in 0.60 in (1958)
Month to date precipitation 0.03 0.05  
Year to date precipitation 1.92 3.79  
Sea Level Pressure  
Sea Level Pressure 29.68 in    
Wind  
Wind Speed 4 mph (NNW)    
Max Wind Speed 10 mph    
Max Gust Speed 16 mph    
Visibility 6 miles    
Events Snow    
T = Trace of Precipitation, MM = Missing Value Source: NWS Daily Summary

Daily Weather History Graph

Daily Weather History Graph

Search for Another Location

Airport or City:

Trip Planner

Search our weather history database for the weather conditions in past years. The results will help you decide how hot, cold, wet, or windy it might be!

Date:

Astronomy

Mar. 01, 2013 Rise Set
Actual Time 6:33 AM EST 5:45 PM EST
Civil Twilight 6:04 AM EST 6:14 PM EST
Nautical Twilight 5:31 AM EST 6:47 PM EST
Astronomical Twilight 4:57 AM EST 7:21 PM EST
Moon 10:28 PM EST (3/1) 8:07 AM EST (3/1)
Length of Visible Light 12h 09m
Length of Day
11h 11m
Waning Gibbous, 83% of the Moon is Illuminated
Mar 1
Waning Gibbous
Mar 4
Last Quarter
Mar 11
New
Mar 19
First Quarter
Mar 27
Full

Hourly Weather History & Observations

Time (EST) Temp. Windchill Dew Point Humidity Pressure Visibility Wind Dir Wind Speed Gust Speed Precip Events Conditions
12:00 AM 30.2 °F - 28.4 °F 93% 29.57 in 2.0 mi Calm Calm - 0.00 in Snow Light Snow
12:05 AM 30.2 °F - 28.4 °F 93% 29.57 in 3.0 mi Calm Calm - 0.00 in Snow Light Snow
12:51 AM 30.0 °F - 28.0 °F 92% 29.61 in 7.0 mi Calm Calm - 0.01 in   Overcast
1:18 AM 30.2 °F - 28.4 °F 93% 29.57 in 10.0 mi Calm Calm - N/A   Overcast
1:49 AM 30.2 °F - 26.6 °F 86% 29.57 in 10.0 mi Calm Calm - N/A   Overcast
1:51 AM 30.0 °F - 27.0 °F 88% 29.61 in 10.0 mi Calm Calm - N/A   Overcast
2:51 AM 30.9 °F 27.5 °F 27.0 °F 85% 29.60 in 10.0 mi Variable 3.5 mph - N/A   Overcast
3:51 AM 30.0 °F 25.2 °F 27.0 °F 88% 29.62 in 10.0 mi Variable 4.6 mph - N/A   Overcast
4:07 AM 30.2 °F - 26.6 °F 86% 29.58 in 10.0 mi Calm Calm - N/A   Overcast
4:51 AM 28.0 °F 21.7 °F 27.0 °F 96% 29.64 in 3.0 mi Variable 5.8 mph - N/A   Overcast
4:58 AM 28.4 °F 22.2 °F 26.6 °F 93% 29.59 in 2.0 mi North 5.8 mph - N/A   Overcast
5:14 AM 28.4 °F 24.6 °F 26.6 °F 93% 29.60 in 4.0 mi Variable 3.5 mph - N/A   Overcast
5:51 AM 28.0 °F 21.7 °F 26.1 °F 92% 29.66 in 8.0 mi North 5.8 mph - N/A   Overcast
6:16 AM 28.4 °F 23.3 °F 26.6 °F 93% 29.61 in 8.0 mi NW 4.6 mph - N/A   Overcast
6:51 AM 27.0 °F 21.6 °F 25.0 °F 92% 29.67 in 10.0 mi North 4.6 mph - N/A   Overcast
7:51 AM 27.0 °F 21.6 °F 24.1 °F 89% 29.69 in 6.0 mi North 4.6 mph - 0.00 in   Overcast
8:24 AM 26.6 °F 20.0 °F 24.8 °F 93% 29.63 in 6.0 mi North 5.8 mph - N/A   Overcast
8:51 AM 28.0 °F 22.8 °F 24.1 °F 85% 29.69 in 10.0 mi NNW 4.6 mph - N/A   Overcast
9:06 AM 28.4 °F 22.2 °F 24.8 °F 86% 29.63 in 10.0 mi Variable 5.8 mph - N/A   Overcast
9:13 AM 28.4 °F 24.6 °F 24.8 °F 86% 29.63 in 9.0 mi NNW 3.5 mph - N/A   Overcast
9:42 AM 28.4 °F 22.2 °F 24.8 °F 86% 29.64 in 8.0 mi Variable 5.8 mph - N/A   Overcast
9:51 AM 28.0 °F 21.7 °F 24.1 °F 85% 29.70 in 9.0 mi WNW 5.8 mph - N/A   Overcast
10:46 AM 28.4 °F 22.2 °F 24.8 °F 86% 29.64 in 10.0 mi Variable 5.8 mph - N/A   Overcast
10:51 AM 28.9 °F - 24.1 °F 82% 29.70 in 9.0 mi Calm Calm - N/A   Overcast
11:51 AM 28.0 °F 22.8 °F 25.0 °F 88% 29.72 in 4.0 mi Variable 4.6 mph - 0.00 in Snow Light Snow
11:58 AM 28.4 °F 22.2 °F 24.8 °F 86% 29.66 in 9.0 mi Variable 5.8 mph - 0.00 in   Overcast
12:08 PM 28.4 °F 23.3 °F 24.8 °F 86% 29.66 in 6.0 mi Variable 4.6 mph - 0.00 in   Overcast
12:51 PM 28.0 °F 24.2 °F 24.1 °F 85% 29.72 in 7.0 mi Variable 3.5 mph - 0.00 in Snow Light Snow
1:14 PM 28.4 °F 24.6 °F 24.8 °F 86% 29.66 in 1.8 mi Variable 3.5 mph - 0.00 in Snow Light Snow
1:24 PM 28.4 °F 21.2 °F 24.8 °F 86% 29.66 in 3.0 mi NNW 6.9 mph - 0.00 in Snow Light Snow
1:51 PM 28.0 °F 22.8 °F 24.1 °F 85% 29.72 in 2.5 mi Variable 4.6 mph - 0.00 in Snow Light Snow
2:07 PM 28.4 °F 21.2 °F 23.0 °F 80% 29.66 in 7.0 mi NNW 6.9 mph - 0.00 in   Overcast
2:32 PM 28.4 °F 21.2 °F 23.0 °F 80% 29.66 in 10.0 mi North 6.9 mph - 0.00 in   Overcast
2:51 PM 28.0 °F 24.2 °F 23.0 °F 81% 29.73 in 10.0 mi Variable 3.5 mph - 0.00 in   Overcast
3:46 PM 26.6 °F 22.6 °F 24.8 °F 93% 29.68 in 2.5 mi Variable 3.5 mph - 0.01 in Snow Light Snow
3:51 PM 28.0 °F 22.8 °F 24.1 °F 85% 29.74 in 5.0 mi Variable 4.6 mph - 0.01 in Snow Light Snow
4:08 PM 28.4 °F 21.2 °F 23.0 °F 80% 29.68 in 10.0 mi NNW 6.9 mph - N/A   Overcast
4:34 PM 26.6 °F 21.2 °F 23.0 °F 86% 29.69 in 3.0 mi Variable 4.6 mph - 0.00 in Snow Light Snow
4:41 PM 26.6 °F 21.2 °F 24.8 °F 93% 29.69 in 2.0 mi Variable 4.6 mph - 0.00 in Snow Light Snow
4:51 PM 26.1 °F 20.5 °F 24.1 °F 92% 29.75 in 2.5 mi NW 4.6 mph - 0.00 in Snow Light Snow
5:01 PM 26.6 °F 21.2 °F 24.8 °F 93% 29.69 in 4.0 mi Variable 4.6 mph - 0.00 in Snow Light Snow
5:34 PM 26.6 °F - 23.0 °F 86% 29.70 in 2.0 mi Calm Calm - 0.00 in Snow Light Snow
5:41 PM 26.6 °F 21.2 °F 24.8 °F 93% 29.70 in 1.2 mi WNW 4.6 mph - 0.00 in Snow Light Snow
5:51 PM 26.1 °F 20.5 °F 23.0 °F 88% 29.77 in 1.5 mi NW 4.6 mph - 0.00 in Snow Light Snow
5:59 PM 26.6 °F 22.6 °F 23.0 °F 86% 29.71 in 3.0 mi Variable 3.5 mph - 0.00 in Snow Light Snow
6:51 PM 25.0 °F 20.7 °F 21.9 °F 88% 29.78 in 8.0 mi Variable 3.5 mph - 0.00 in   Overcast
7:51 PM 25.0 °F 17.1 °F 21.9 °F 88% 29.79 in 10.0 mi NW 6.9 mph - 0.00 in   Overcast
8:51 PM 25.0 °F 20.7 °F 23.0 °F 92% 29.79 in 2.5 mi Variable 3.5 mph - N/A   Overcast
9:18 PM 24.8 °F 20.5 °F 23.0 °F 93% 29.73 in 3.0 mi Variable 3.5 mph - 0.01 in Snow Light Snow
9:51 PM 25.0 °F - 23.0 °F 92% 29.79 in 4.0 mi Calm Calm - 0.01 in Snow Light Snow
10:31 PM 24.8 °F 20.5 °F 21.2 °F 86% 29.72 in 8.0 mi Variable 3.5 mph - 0.00 in   Overcast
10:51 PM 24.1 °F 19.7 °F 21.9 °F 91% 29.78 in 6.0 mi Variable 3.5 mph - 0.00 in   Overcast
11:05 PM 24.8 °F 20.5 °F 21.2 °F 86% 29.72 in 7.0 mi Variable 3.5 mph - N/A   Overcast
11:51 PM 24.1 °F 18.2 °F 21.0 °F 88% 29.78 in 8.0 mi NW 4.6 mph - N/A   Overcast